DW3693 Weather Reports


Display with metric or nautical units.
time (UTC)temp
F
wind
direction
speed
MPH
gust
MPH
rain 1hr
in
rain 24hr
in
rain mn
in
humidity
%
barometer
mb
20260505001017 74 270 5.0 12.0 0.00 0.00 0.00 52 1007.1
20260505000016 74 270 5.0 18.0 0.00 0.00 0.00 53 1007.3
20260504235016 75 270 5.0 17.0 0.00 0.00 0.00 50 1007.3
20260504234015 75 270 6.0 16.0 0.00 0.00 0.00 50 1007.1
20260504233016 75 293 5.0 13.0 0.00 0.00 0.00 52 1007.0
20260504232016 75 293 6.0 20.0 0.00 0.00 0.00 50 1007.0
20260504231016 75 270 6.0 18.0 0.00 0.00 0.00 51 1007.0
20260504230016 75 270 7.0 17.0 0.00 0.00 0.00 51 1007.2
20260504225015 75 270 5.0 11.0 0.00 0.00 0.00 51 1007.3
20260504224015 75 270 5.0 12.0 0.00 0.00 0.00 50 1007.3
20260504223056 75 270 7.0 18.0 0.00 0.00 0.00 52 1007.4
20260504222016 75 270 8.0 17.0 0.00 0.00 0.00 51 1007.5
20260504221016 75 270 6.0 14.0 0.00 0.00 0.00 52 1007.6
20260504220016 75 270 7.0 13.0 0.00 0.00 0.00 52 1007.6
20260504215016 75 270 6.0 14.0 0.00 0.00 0.00 51 1007.6
20260504214015 75 248 4.0 11.0 0.00 0.00 0.00 53 1007.8
20260504213015 75 270 7.0 19.0 0.00 0.00 0.00 51 1008.0
20260504212016 75 293 7.0 16.0 0.00 0.00 0.00 49 1008.0
20260504211035 75 270 6.0 14.0 0.00 0.00 0.00 51 1008.0
20260504210017 75 248 5.0 15.0 0.00 0.00 0.00 52 1008.1
20260504205017 75 270 5.0 17.0 0.00 0.00 0.00 53 1008.2
20260504204017 74 270 6.0 15.0 0.00 0.00 0.00 50 1008.2
20260504203017 74 270 5.0 14.0 0.00 0.00 0.00 53 1008.4
20260504202017 74 270 6.0 18.0 0.00 0.00 0.00 49 1008.4
20260504201016 74 270 6.0 15.0 0.00 0.00 0.00 52 1008.5
20260504200017 74 270 6.0 18.0 0.00 0.00 0.00 52 1008.5
20260504195059 74 270 7.0 28.0 0.00 0.00 0.00 52 1008.6
20260504194018 73 270 4.0 11.0 0.00 0.00 0.00 53 1008.7
20260504193017 73 270 6.0 14.0 0.00 0.00 0.00 55 1008.7
20260504192037 72 225 4.0 15.0 0.00 0.00 0.00 53 1008.8
20260504191017 72 270 6.0 12.0 0.00 0.00 0.00 54 1008.9
20260504190017 72 248 5.0 14.0 0.00 0.00 0.00 55 1008.9
20260504185017 72 248 6.0 12.0 0.00 0.00 0.00 55 1009.0
20260504184038 72 293 4.0 14.0 0.00 0.00 0.00 54 1009.0
20260504183017 71 180 4.0 13.0 0.00 0.00 0.00 56 1009.1
20260504182017 71 315 5.0 13.0 0.00 0.00 0.00 57 1009.1
20260504181018 70 270 4.0 12.0 0.00 0.00 0.00 56 1009.2
20260504180016 70 270 5.0 14.0 0.00 0.00 0.00 57 1009.4
20260504175037 70 135 2.0 6.0 0.00 0.00 0.00 57 1009.4
20260504174017 69 270 3.0 10.0 0.00 0.00 0.00 60 1009.5
20260504173017 69 135 3.0 13.0 0.00 0.00 0.00 62 1009.5
20260504172017 68 270 3.0 8.0 0.00 0.00 0.00 58 1009.5
20260504171018 68 158 4.0 16.0 0.00 0.00 0.00 60 1009.4
20260504151017 64 270 4.0 18.0 0.00 0.00 0.00 67 1010.0
20260504141016 56 248 1.0 2.0 0.00 0.00 0.00 80 1009.8
20260504081017 56 0.0 1.0 0.00 0.00 0.00 78 1008.9
20260504050017 62 0.0 1.0 0.00 0.00 0.00 67 1008.0
20260504045017 63 0.0 1.0 0.00 0.00 0.00 66 1008.0
20260504044016 63 0.0 1.0 0.00 0.00 0.00 65 1007.9
20260504043017 64 0.0 1.0 0.00 0.00 0.00 62 1007.8
20260504042016 65 90 1.0 2.0 0.00 0.00 0.00 62 1007.7
20260504041017 65 0.0 1.0 0.00 0.00 0.00 62 1007.5
20260504040016 65 0.0 0.0 0.00 0.00 0.00 62 1007.2
20260504035036 66 0.0 1.0 0.00 0.00 0.00 62 1007.2
20260504034016 67 90 1.0 2.0 0.00 0.00 0.00 61 1007.0
20260504033017 68 0.0 1.0 0.00 0.00 0.00 60 1006.8
20260504032016 69 0.0 1.0 0.00 0.00 0.00 58 1006.9
20260504031016 70 0.0 0.0 0.00 0.00 0.00 56 1006.9
20260504030016 71 0.0 0.0 0.00 0.00 0.00 55 1006.8
20260504025017 73 0.0 1.0 0.00 0.00 0.00 53 1006.8
20260504024017 75 0.0 1.0 0.00 0.00 0.00 50 1006.8
20260504023016 77 90 1.0 2.0 0.00 0.00 0.00 44 1006.8
20260504022037 79 0.0 0.0 0.00 0.00 0.00 39 1006.8
20260504021016 80 0.0 0.0 0.00 0.00 0.00 38 1007.0
20260504020016 81 0.0 1.0 0.00 0.00 0.00 37 1007.1
20260504015037 82 0.0 0.0 0.00 0.00 0.00 35 1007.0
20260504014056 83 90 1.0 4.0 0.00 0.00 0.00 34 1007.3
20260504013016 84 0.0 1.0 0.00 0.00 0.00 33 1007.3
20260504012017 84 0.0 2.0 0.00 0.00 0.00 39 1007.4
20260504011016 84 90 1.0 4.0 0.00 0.00 0.00 32 1007.4
20260504010016 85 68 1.0 3.0 0.00 0.00 0.00 30 1007.6
20260504005016 85 68 1.0 2.0 0.00 0.00 0.00 32 1007.6
20260504004016 85 68 1.0 4.0 0.00 0.00 0.00 26 1007.8
20260504003016 85 180 1.0 3.0 0.00 0.00 0.00 27 1007.9
20260504002017 85 90 1.0 5.0 0.00 0.00 0.00 31 1008.0